Погода в Перелешине

Россия / Воронежская область     51°44′14″N   40°08′21″E
темп.,
°C
ветер,
м/с
пор.,
м/с
влажн.,
%
обл.,
%
осадки,
мм/ч
давл.,
гПа
погр.,
м
12 апреля, пн
пн1200:00+7св51092100 0.0 1028363
03:00+6св51097100 0.0 1027248
06:00+6св51196100 0.0 1027248
09:00+11всв7107795 0.0 1027374
12:00+18в795337 0.0 1025703
15:00+21вюв793694 0.0 10251308
18:00+18вюв5114810 0.0 1025268
21:00+13вюв413655 0.0 1026235
13 апреля, вт
вт1300:00+11вюв4136647 0.0 1026228
03:00+10вюв4136942 0.0 1026227
06:00+8вюв4107044 0.0 1027172
09:00+14юв6104934 0.0 1027379
12:00+19юв7103419 0.0 10261048
15:00+21юв792929 0.0 10251915
18:00+18юв611384 0.0 1024339
21:00+13вюв412555 0.0 1025217
14 апреля, ср
ср1400:00+11вюв4126255 0.0 1024208
03:00+9вюв41169100 0.0 1023180
06:00+9вюв41171100 0.0 1023216
09:00+13юв6955100 0.0 1022379
12:00+18юв68373 0.0 10211056
15:00+20юв682719 0.0 10192100
18:00+18вюв593983 0.0 1019281
21:00+13вюв495317 0.0 1019143
15 апреля, чт
чт1500:00+11вюв4759100 0.0 1018114
03:00+10вюв346567 0.0 101860
06:00+9вюв357366 0.0 101875
09:00+14вюв4753100 0.0 1017369
12:00+18вюв6743100 0.0 10161124
15:00+20юв5732100 0.0 10142260
18:00+18ююв224373 0.0 101427
21:00+15ююв3353100 0.0 101442
16 апреля, пт
пт1600:00+13зюз2464100 0.0 101357
03:00+12з1175100 0.0 101311
06:00+12всв237568 0.0 101362
09:00+15вюв356290 0.0 1013467
12:00+17ююв3352100 0.8 10131236
15:00+17ююз2355100 4.3 1013678
18:00+16ююз246620 3.3 1012332
21:00+12з2376100 4.3 101337